GW1174 Weather Reports


time (UTC)temp
C
wind
direction
speed
KPH
gust
KPH
rain 1hr
cm
rain 24hr
cm
rain mn
cm
humidity
%
barometer
mb
20260904091018 20 203 9.7 16.1 0.00 0.53 0.00 85 1017.7
20260904090017 20 180 6.4 12.9 0.00 0.53 0.00 87 1017.7
20260904085037 -1 9 16.1 19.3 0.00 0.51 0.51 21 1050.5
20260904085017 19 180 6.4 12.9 0.00 0.53 0.00 89 1018.0
20260904084017 18 225 6.4 9.7 0.00 0.53 0.00 90 1018.0
20260904083017 18 203 9.7 17.7 0.00 0.53 0.00 91 1017.9
20260904082017 -1 5 16.1 19.3 0.00 0.51 0.51 21 1049.8
20260904081017 17 203 8.0 14.5 0.00 0.53 0.00 93 1018.0
20260904080017 17 203 6.4 11.3 0.00 0.53 0.00 94 1018.2
20260904075017 17 203 6.4 8.0 0.00 0.53 0.00 94 1018.1
20260904074017 -1 2 16.1 19.3 0.00 0.51 0.51 20 1049.2
20260904073037 0 2 16.1 19.3 0.00 0.51 0.51 20 1049.1
20260904072017 16 180 6.4 9.7 0.00 0.53 0.00 94 1018.2
20260904071037 16 180 6.4 9.7 0.00 0.53 0.00 94 1018.2
20260904070017 0 0 16.1 19.3 0.00 0.51 0.51 20 1048.9
20260904065018 16 180 4.8 12.9 0.00 0.53 0.00 95 1018.2
20260904064017 0 0 16.1 19.3 0.00 0.51 0.51 20 1048.8
20260904063017 15 180 4.8 8.0 0.00 0.53 0.00 95 1018.1
20260904062017 15 158 1.6 6.4 0.00 0.53 0.00 95 1018.1
20260904061017 1 0 16.1 19.3 0.00 0.51 0.51 20 1048.8
20260904060017 1 0 16.1 19.3 0.00 0.51 0.51 20 1048.8
20260904055017 1 1 16.1 19.3 0.00 0.51 0.51 20 1048.9
20260904054017 14 0.0 3.2 0.00 0.53 0.00 95 1018.1
20260904053017 13 0.0 1.6 0.00 0.53 0.00 95 1018.3
20260904052017 2 2 16.1 19.3 0.00 0.51 0.51 20 1049.2
20260904051017 2 3 16.1 19.3 0.00 0.51 0.51 20 1049.3
20260904050017 3 3 16.1 19.3 0.00 0.51 0.51 21 1049.4
20260904045017 3 4 16.1 19.3 0.00 0.51 0.51 21 1049.6
20260904044017 3 5 16.1 19.3 0.00 0.51 0.51 21 1049.8
20260904043017 4 6 16.1 19.3 0.00 0.51 0.51 21 1049.9
20260904042017 5 7 16.1 19.3 0.00 0.51 0.51 21 1050.2
20260904041037 5 8 16.1 19.3 0.00 0.51 0.51 21 1050.4
20260904040017 5 9 16.1 19.3 0.00 0.51 0.51 22 1050.6
20260904035017 6 11 16.1 19.3 0.00 0.51 0.51 22 1050.9
20260904034017 13 158 1.6 4.8 0.00 0.53 0.00 95 1018.4
20260904033017 7 13 16.1 19.3 0.00 0.51 0.51 22 1051.4
20260904032017 7 15 16.1 19.3 0.00 0.51 0.51 22 1051.7
20260904031017 7 16 16.1 17.7 0.00 0.51 0.51 23 1052.0
20260904030017 8 18 14.5 17.7 0.00 0.51 0.51 23 1052.4
20260904025017 8 20 14.5 17.7 0.00 0.51 0.51 23 1052.7
20260904024017 9 22 14.5 17.7 0.00 0.51 0.51 24 1053.1
20260904023017 10 24 14.5 17.7 0.00 0.51 0.51 24 1053.5
20260904022037 10 26 14.5 17.7 0.00 0.51 0.51 24 1053.9
20260904021017 11 28 14.5 17.7 0.00 0.51 0.51 25 1054.3
20260904020017 11 30 14.5 17.7 0.00 0.51 0.51 25 1054.7
20260904015016 12 0.0 1.6 0.00 0.53 0.00 94 1019.1
20260904014057 12 34 14.5 17.7 0.05 0.51 0.51 26 1055.6
20260904013017 12 37 14.5 17.7 0.08 0.51 0.51 26 1056.0
20260904012017 13 39 14.5 17.7 0.10 0.51 0.51 27 1056.5
20260904011018 13 0.0 0.0 0.00 0.53 0.00 94 1019.4
20260904010017 13 44 14.5 17.7 0.15 0.51 0.51 27 1057.5
20260904005017 14 47 14.5 16.1 0.15 0.51 0.48 28 1058.0
20260904004017 15 49 14.5 16.1 0.15 0.51 0.46 28 1058.5
20260904003037 15 52 14.5 16.1 0.18 0.51 0.43 29 1059.1
20260904002017 16 55 12.9 16.1 0.18 0.51 0.41 29 1059.6
20260904001017 16 58 12.9 16.1 0.18 0.51 0.38 30 1060.2
20260904000017 16 61 12.9 16.1 0.18 0.51 0.36 30 1060.8
20260903235017 17 64 12.9 16.1 0.18 0.51 0.33 31 1061.4
20260903234037 17 67 12.9 16.1 0.18 0.51 0.30 31 1062.0
20260903233017 17 70 12.9 16.1 0.15 0.51 0.25 32 1062.6
20260903232017 18 73 12.9 16.1 0.15 0.51 0.23 32 1063.2
20260903231037 18 76 12.9 14.5 0.15 0.51 0.20 33 1063.8
20260903230017 18 79 12.9 14.5 0.18 0.51 0.18 33 1064.5
20260903225037 18 83 12.9 14.5 0.15 0.51 0.15 34 1065.1
20260903224017 19 86 12.9 14.5 0.13 0.51 0.13 34 1065.8
20260903223017 19 89 12.9 14.5 0.10 0.51 0.10 35 1066.4
20260903222018 15 158 1.6 3.2 0.00 0.53 0.00 94 1020.6
20260903221038 15 0.0 1.6 0.00 0.53 0.00 94 1020.8
20260903220018 15 0.0 3.2 0.00 0.53 0.53 94 1020.7
20260903215037 20 103 11.3 14.5 0.00 0.51 0.51 37 1069.2
20260903214017 20 107 11.3 12.9 0.00 0.51 0.51 38 1069.9
20260903213037 20 110 11.3 12.9 0.00 0.51 0.51 38 1070.6
20260903212017 15 0.0 1.6 0.00 0.53 0.53 93 1020.6
20260903211017 15 0.0 0.0 0.00 0.53 0.53 94 1020.9
20260903210017 15 0.0 0.0 0.00 0.53 0.53 94 1020.9
20260903205018 15 0.0 0.0 0.00 0.53 0.53 94 1020.7
20260903204037 15 0.0 0.0 0.00 0.53 0.53 93 1020.7
20260903203017 21 133 9.7 12.9 0.00 0.51 0.51 42 1075.0
20260903202017 15 158 1.6 3.2 0.00 0.53 0.53 93 1020.6
20260903201017 15 158 3.2 6.4 0.00 0.53 0.53 93 1020.7
20260903200037 21 144 9.7 11.3 0.00 0.51 0.51 44 1077.3
20260903195017 21 148 9.7 11.3 0.00 0.51 0.51 45 1078.0
20260903194017 21 152 9.7 11.3 0.00 0.51 0.51 45 1078.8
20260903193017 20 156 9.7 11.3 0.00 0.51 0.51 46 1079.6
20260903192017 20 159 9.7 11.3 0.00 0.51 0.51 47 1080.3
20260903191016 20 163 8.0 11.3 0.00 0.51 0.51 47 1081.1
20260903190017 20 167 8.0 9.7 0.00 0.51 0.51 48 1081.9
20260903185017 20 171 8.0 9.7 0.00 0.51 0.51 49 1082.7
20260903184017 20 175 8.0 9.7 0.00 0.51 0.51 49 1083.4
20260903183017 19 179 8.0 9.7 0.00 0.51 0.51 50 1084.2
20260903182017 19 183 8.0 9.7 0.00 0.51 0.51 51 1085.0
20260903181017 18 187 8.0 9.7 0.00 0.51 0.51 51 1085.8
20260903180017 18 191 8.0 9.7 0.00 0.51 0.51 52 1086.5
20260903175017 18 195 8.0 9.7 0.00 0.51 0.51 52 1087.3
20260903174017 18 199 6.4 8.0 0.00 0.51 0.51 53 1088.1
20260903173017 17 203 6.4 8.0 0.00 0.51 0.51 54 1088.9
20260903172017 17 206 6.4 8.0 0.00 0.51 0.51 54 1089.6
20260903171018 16 90 1.6 4.8 0.05 0.53 0.53 92 1019.2
20260903170017 16 214 6.4 8.0 0.00 0.51 0.51 56 1091.2
20260903165017 16 218 6.4 8.0 0.00 0.51 0.51 56 1091.9
20260903164017 16 222 6.4 8.0 0.00 0.51 0.51 57 1092.7
20260903163017 15 226 6.4 8.0 0.00 0.51 0.51 58 1093.4
20260903162017 15 229 6.4 6.4 0.00 0.51 0.51 58 1094.2
20260903161017 15 233 6.4 6.4 0.00 0.51 0.51 59 1094.9
20260903160037 14 237 4.8 6.4 0.00 0.51 0.51 59 1095.7
20260903155017 13 241 4.8 6.4 0.00 0.51 0.51 60 1096.4
20260903154017 13 244 4.8 6.4 0.00 0.51 0.51 61 1097.1
20260903153017 12 248 4.8 6.4 0.00 0.51 0.51 61 1097.8
20260903152017 12 252 4.8 6.4 0.00 0.51 0.51 62 1098.6
20260903151017 12 255 4.8 6.4 0.00 0.51 0.51 63 1099.3
20260903150017 11 259 4.8 4.8 0.00 0.51 0.51 63 1100.0
20260903145017 11 262 4.8 4.8 0.00 0.51 0.51 64 1100.7
20260903144018 16 270 1.6 4.8 0.15 0.23 0.23 87 1020.2
20260903143019 17 293 4.8 9.7 0.15 0.20 0.20 86 1020.5
20260903143017 10 269 4.8 4.8 0.00 0.51 0.51 65 1102.0
20260903142017 17 225 4.8 6.4 0.15 0.18 0.18 84 1020.5
20260903141018 17 203 4.8 6.4 0.15 0.15 0.15 84 1020.3
20260903140018 17 225 6.4 9.7 0.13 0.13 0.13 82 1020.3
20260903135037 8 282 3.2 4.8 0.00 0.51 0.51 67 1104.7
20260903134038 17 225 4.8 6.4 0.08 0.08 0.08 80 1020.5
20260903133017 7 289 3.2 3.2 0.00 0.51 0.51 68 1105.9
20260903132019 18 225 6.4 12.9 0.03 0.03 0.03 73 1020.8
20260903132017 6 292 3.2 3.2 0.00 0.51 0.51 69 1106.5
20260903131017 20 225 9.7 17.7 0.00 0.00 0.00 70 1020.9
20260903130017 6 298 3.2 3.2 0.00 0.51 0.51 70 1107.7
20260903125037 5 301 3.2 3.2 0.00 0.51 0.51 70 1108.3
20260903125017 21 225 9.7 17.7 0.00 0.00 0.00 61 1020.6
20260903124017 21 203 8.0 16.1 0.00 0.00 0.00 61 1020.4
20260903123017 4 307 1.6 3.2 0.00 0.51 0.51 71 1109.4
20260903122038 21 248 14.5 25.7 0.00 0.00 0.00 60 1020.5
20260903122017 3 309 1.6 3.2 0.00 0.51 0.51 72 1110.0
20260903121018 22 248 14.5 29.0 0.00 0.00 0.00 56 1020.9
20260903120037 22 270 11.3 24.1 0.00 0.00 0.00 58 1020.9
20260903120017 3 315 1.6 3.2 0.00 0.51 0.51 72 1111.0
20260903115037 2 317 1.6 1.6 0.00 0.51 0.51 73 1111.5
20260903114017 2 320 1.6 1.6 0.00 0.51 0.51 73 1112.0
20260903113017 21 270 8.0 16.1 0.00 0.00 0.00 62 1020.9
20260903112037 21 248 9.7 20.9 0.00 0.00 0.00 59 1021.1
20260903112017 1 325 1.6 1.6 0.00 0.51 0.51 74 1113.0
20260903111017 1 327 1.6 1.6 0.00 0.51 0.51 74 1113.4
20260903110037 21 248 11.3 20.9 0.00 0.00 0.00 59 1021.1
20260903110017 1 329 1.6 1.6 0.00 0.51 0.51 75 1113.9
20260903105017 21 270 9.7 20.9 0.00 0.00 0.00 59 1021.1
20260903104017 0 333 1.6 1.6 0.00 0.51 0.51 76 1114.7
20260903103017 0 335 1.6 1.6 0.00 0.51 0.51 76 1115.1
20260903102017 0 337 1.6 1.6 0.00 0.51 0.51 76 1115.5
20260903101017 0 339 1.6 1.6 0.00 0.51 0.51 77 1115.9
20260903100017 0 341 1.6 1.6 0.00 0.51 0.51 77 1116.2
20260903095017 21 315 6.4 14.5 0.00 0.00 0.00 57 1021.4
20260903094017 21 248 9.7 16.1 0.00 0.00 0.00 54 1021.3
20260903093017 21 203 6.4 14.5 0.00 0.00 0.00 57 1021.4
20260903092017 0 347 0.0 0.0 0.00 0.51 0.51 78 1117.5